Location: Mercogliano
(40.9167°N, 14.7333°E)
Time: 06:47:52
(UTC+00:00)

Cosmos 2150 Rocket - Pass Details

Date: 20 January 2021
Orbit: 748 x 808 km, 74.0° (Epoch: 06 March)

Event Time Altitude Azimuth Distance (km) Brightness Sun altitude
Rises 05:04:37 0° 347° (NNW) 3,262 7.0 -14.4°
Reaches altitude 10° 05:07:10 10° 356° (N) 2,340 6.3 -13.9°
Maximum altitude 05:12:07 38° 64° (ENE) 1,185 5.4 -13.0°
Drops below altitude 10° 05:17:07 10° 132° (SE) 2,362 7.6 -12.1°
Sets 05:19:41 0° 141° (SE) 3,296 8.3 -11.6°
